COSMOS 2544 (759)

Last updated on Sat Dec 13 2025 00:03:19 GMT+0000 (Coordinated Universal Time)

1 44850U 19088A 25345.79400019 -.00000032 00000+0 00000+0 0 9990 2 44850 65.4596 79.9900 0013691 249.2614 110.6076 2.13101808 46724
UTC large
Height (km)
Speed (km/s)
/
Latitude / Longitude
Inclination (degrees)
Orbital Period (minutes)
Azimuth
Elevation
Range (km)
Doppler Factor

Next 0 passes for location: London (51.5072 / 0.1276)

Sorry there are no passes over London.